Orbital Elements at Epoch 2459000.5 (2020-May-31.0) TDB
Reference: JPL 20 (heliocentric ecliptic J2000)
Element | Value | Uncertainty (1-sigma) | Units |
e | .1079020525747445 | 4.6496e-08 | |
a | 3.022601345804428 | 2.241e-08 | au |
q | 2.696456456476945 | 1.359e-07 | au |
i | 2.612242630555854 | 4.4351e-06 | deg |
node | 149.27774278152 | 0.00010265 | deg |
peri | 199.4513779351267 | 0.00010468 | deg |
M | 66.42401433360098 | 2.0078e-05 | deg |
tp | 2458646.345836502553 (2019-Jun-11.84583650) | 0.00010688 | TDB |
period | 1919.418754469744 5.26 | 2.1346e-05 5.844e-08 | d yr |
n | .1875567794477725 | 2.0858e-09 | deg/d |
Q | 3.348746235131911 | 2.4828e-08 | au |
|
| | Orbit Determination Parameters
Additional Information
|